Regional Weather Roundup
Issued by NWS

Home | Current Version | Previous Version | Graphics & Text | Print | Product List | Glossary On
Versions: 1 2 3 4 5 6 7 8 9 10 11 12 13 14 15 16 17 18 19 20 21 22 23 24 25 26 27 28 29 30 31 32 33 34 35 36 37 38 39 40 41 42 43 44 45 46 47 48 49 50
000
ASUS45 KSLC 020810
RWRUT

UTAH REGIONAL WEATHER ROUNDUP
NATIONAL WEATHER SERVICE SALT LAKE CITY UT
200 AM MDT TUE JUN 02 2015

UTZ001>011-023>025-020900-

NORTHERN UTAH

CITY           SKY/WX    TMP DP  RH WIND       PRES   REMARKS
BRIGHAM CITY   CLEAR     56  47  71 CALM      29.89S
HILL AFB       CLEAR     60  41  49 CALM      29.90S
LOGAN          CLEAR     52  46  80 CALM      29.93S
OGDEN          CLEAR     59  48  67 W5        29.89R
PROVO AIRPORT  CLEAR     57  45  62 CALM      29.91F
SALT LAKE CITY PTCLDY    63  52  67 CALM      29.88S
VERNAL         PTCLDY    60  38  43 W8        29.96R
WENDOVER       PTCLDY    61  45  55 W5        29.91S
HEBER CITY     CLEAR     54  32  43 E5        29.97R
WEST JORDAN    CLEAR     61  39  44 SW6       29.91S

$$

UTZ012>022-026-027-020900-

SOUTHERN/CENTRAL UTAH

CITY           SKY/WX    TMP DP  RH WIND       PRES   REMARKS
BLANDING       MOCLDY    66  19  17 CALM      30.14R
BRYCE CANYON   CLEAR     36  28  73 SW7       30.19S WCI  30
CEDAR CITY     CLEAR     58  23  26 S9        30.03F
DELTA          PTCLDY    65  26  22 S13       29.93R
HANKSVILLE     PTCLDY    68  21  17 W9        29.95R
MILFORD        CLEAR     57  28  33 S14       29.97F
MOAB/CYNLANDS  CLEAR     71  23  16 W7        29.90R
PRICE          PTCLDY    67  21  17 NW5       30.00R
ST GEORGE      SUNNY     73  21  14 SE14      29.89F
KANAB          CLEAR     54  32  43 NE6       30.07S

$$

REGIONAL REPORTS     COLORADO/ARIZONA

CITY           SKY/WX    TMP DP  RH WIND       PRES   REMARKS
CRAIG, CO      PTCLDY    46  43  89 W5        30.04R
GRAND JUNCTION PTCLDY    62  30  29 E6        29.93R
RIFLE          CLEAR     54  41  61 CALM      30.00R
MONTROSE       PTCLDY    61  28  28 SE8       30.05R
CORTEZ         CLEAR     70  19  14 SW8       30.10R
PAGE, AZ       PTCLDY    76  19  11 S6        29.98R
GRAND CANYON   CLEAR     40  25  55 CALM      30.18F
KINGMAN        PTCLDY    73  18  12 S12       29.95S
FLAGSTAFF      PTCLDY    45  26  47 CALM      30.22F

$$

REGIONAL REPORTS    NEVADA/IDAHO/WYOMING

CITY           SKY/WX    TMP DP  RH WIND       PRES   REMARKS
LAS VEGAS, NV  PTCLDY    80  31  16 S17G24    29.80F
ELY            CLEAR     58  28  32 S13       30.03S
ELKO           MOCLDY    62  32  32 SW12G30   30.01R
POCATELLO, ID  CLEAR     48  48 100 SE6       29.93S
BURLEY         CLEAR     49  46  90 CALM      29.89S
EVANSTON, WY   PTCLDY    51  39  63 NE7       30.07S
ROCK SPRINGS   PTCLDY    52  38  58 S8        30.06F
KEMMERER       CLEAR     48  37  66 SE6       30.09F

$$


USA.gov is the U.S. government's official web portal to all federal, state and local government web resources and services.